Location: Ailly
(50.0793°N, 1.9944°E)
Time: 09:46:56
(UTC+00:00)

Cosmos 2278 Rocket - Pass Details

Date: 15 January 2026
Orbit: 839 x 846 km, 71.0° (Epoch: 16 February)

Event Time Altitude Azimuth Distance (km) Brightness Sun altitude
Rises 04:55:42 0° 179° (S) 3,379 5.4 -26.5°
Reaches altitude 10° 04:58:18 10° 170° (S) 2,450 4.7 -26.0°
Maximum altitude 05:03:20 35° 107° (ESE) 1,329 3.7 -25.2°
Drops below altitude 10° 05:08:25 10° 43° (NE) 2,469 5.1 -24.4°
Sets 05:11:03 0° 35° (NE) 3,409 5.8 -24.0°
